Location: Hurecourt
(47.9030°N, 6.0653°E)
Time: 09:30:21
(UTC+00:00)

Landsat 4 - Pass Details

Date: 14 July 2020
Orbit: 506 x 522 km, 98.2° (Epoch: 06 August)

Event Time Altitude Azimuth Distance (km) Brightness Sun altitude
Rises 00:04:10 0° 11° (N) 2,659 8.9 -20.3°
Reaches altitude 10° 00:06:17 10° 9° (N) 1,767 7.6 -20.2°
Maximum altitude 00:10:04 66° 287° (WNW) 575 3.8 -20.2°
Enters shadow 00:10:41 55° 236° (SW) 637 3.8 -20.2°
